Regional Weather Roundup
Issued by NWS

Home | Current Version | Previous Version | Graphics & Text | Print | Product List | Glossary On
Versions: 1 2 3 4 5 6 7 8 9 10 11 12 13 14 15 16 17 18 19 20 21 22 23 24 25 26 27 28 29 30 31 32 33 34 35 36 37 38 39 40 41 42 43 44 45 46 47 48 49 50
000
ASUS45 KABQ 180101
RWRNM
NEW MEXICO REGIONAL WEATHER ROUNDUP
NATIONAL WEATHER SERVICE ALBUQUERQUE NM
600 PM MST SAT FEB 17 2018

NOTE: "FAIR" MEANS FEW OR NO CLOUDS BELOW 12,000 FEET AGL WITH NO
       SIGNIFICANT WEATHER OR OBSTRUCTIONS TO VISION.

      THIS PRODUCT IS RELEASED AS TWO VERSIONS.  ONE VERSION NEAR
      THE TOP OF THE HOUR CONTAINING PRELIMINARY DATA FROM ALBUQUERQUE
      AND OTHER STATIONS.  A FINAL VERSION WITH ADDITIONAL DATA IS
      ISSUED ABOUT 10 MINUTES AFTER THE HOUR.

NMZ501-503-504-510>518-180200-
NORTHWEST PLATEAU/NORTHCENTRAL MOUNTAINS

CITY           SKY/WX    TMP DP  RH WIND       PRES   REMARKS
FARMINGTON     FAIR      48  12  23 SW5       30.13R
LOS ALAMOS     FAIR      44  21  40 S6        30.18S
SANTA FE       FAIR      47  21  35 CALM      30.16R
TAOS           FAIR      42  16  34 S7        30.18R
ANGEL FIRE     FAIR      37  10  33 SW10      30.18S WCI  29

$$
NMZ402-403-502-505>509-180200-
WESTCENTRAL MOUNTAINS/SOUTHWEST MOUNTAINS

CITY           SKY/WX    TMP DP  RH WIND       PRES   REMARKS
GALLUP         FAIR      48  30  49 SW9       30.17R
GRANTS         FAIR      45  19  36 W5        30.18S
SILVER CITY    FAIR      52  42  69 S5        30.19S

$$
NMZ407-409-411-412-180200-
SOUTHERN DESERTS

CITY           SKY/WX    TMP DP  RH WIND       PRES   REMARKS
DEMING         FAIR      58  47  66 CALM      30.16R
LAS CRUCES     FAIR      56  47  72 E3        30.17S
ALAMOGORDO     FAIR      52  41  66 W3        30.17S
T OR C         FAIR      56  39  53 CALM      30.16S

$$
NMZ519>523-180200-
CENTRAL VALLEYS/CENTRAL HIGHLANDS

CITY           SKY/WX    TMP DP  RH WIND       PRES   REMARKS
ALBUQUERQUE    MOCLDY    53  24  32 S9        30.16R
MORIARTY ARPT  FAIR      48  20  32 W7        30.17S
CLINES CORNERS FAIR      40  24  53 W9        30.19R WCI  34
BELEN          FAIR      51  27  39 S5        30.16S
SOCORRO        FAIR      53  36  53 S7        30.17S

$$
NMZ524>526-539-540-180200-
SOUTHCENTRAL MOUNTAINS

CITY           SKY/WX    TMP DP  RH WIND       PRES   REMARKS
RUIDOSO        NOT AVBL

$$
NMZ527>531-180200-
NORTHEAST HIGHLANDS/NORTHEAST PLAINS

CITY           SKY/WX    TMP DP  RH WIND       PRES   REMARKS
LAS VEGAS      FAIR      44  23  43 S21       30.14R
RATON          FAIR      41  12  30 SW9       30.09R
CLAYTON        FAIR      40  10  29 S10       30.12R WCI  33

$$
NMZ532>537-180200-
EASTCENTRAL PLAINS

CITY           SKY/WX    TMP DP  RH WIND       PRES   REMARKS
SANTA ROSA     FAIR      49  25  39 SE13      30.13R
TUCUMCARI      FAIR      50  22  33 S10       30.12S
CANNON AFB     FAIR      44  37  77 SE7       30.19R
CLOVIS AIRPORT NOT AVBL

$$
NMZ028-029-538-180200-
SOUTHEAST PLAINS

CITY           SKY/WX    TMP DP  RH WIND       PRES   REMARKS
ROSWELL        FAIR      57  40  52 S7        30.12R
ARTESIA        FAIR      59  46  63 SE8       30.13F
CARLSBAD       FAIR      57  47  69 E6        30.12S
HOBBS          CLEAR     54  34  47 E9        30.16R


$$




USA.gov is the U.S. government's official web portal to all federal, state and local government web resources and services.